Location: Home
(42.5358°N, 72.7383°W)
Time: 13:25:25
(UTC-04:00)

ISS - Visible Passes

Search period start: 17 August 2022 00:00
Search period end: 27 August 2022 00:00
Orbit: 412 x 420 km, 51.6° (Epoch: 17 August)

Date Brightness Start Highest point End Pass type
(mag) Time Alt. Az. Time Alt. Az. Time Alt. Az.
23 Aug -1.7 04:54:04 10° S 04:56:41 21° SE 04:59:19 10° E visible
24 Aug -1.2 04:07:39 12° SE 04:08:14 13° SE 04:09:46 10° ESE visible
25 Aug -3.4 04:54:02 23° SW 04:55:53 58° SE 04:59:11 10° ENE visible
26 Aug -2.5 04:07:26 33° SE 04:07:26 33° SE 04:10:22 10° ENE visible
26 Aug -2.8 05:40:51 10° W 05:44:01 37° NNW 05:47:10 10° NE visible
